Terminal Aerodrome Forecast
Issued by NWS Sioux Falls, SD

Home | Current Version | Previous Version | Text Only | Print | Product List | Glossary On
Versions: 1 2 3 4 5 6 7 8 9 10 11 12 13 14
000
FTUS43 KFSD 182340
TAFFSD
TAF
KFSD 182340Z 1900/1924 16008KT P6SM SCT250
     FM190900 19011KT P6SM BKN150 WS013/23044KT
     FM191300 21010KT P6SM BKN150
     FM192000 29011KT P6SM SKC=

USA.gov is the U.S. government's official web portal to all federal, state and local government web resources and services.